Showing default

INSAT 1C, 19330

Orbit data source: Space-Track

INSAT 1C, 19330 is a payload satellite owned by ISRO (IN) in GEO that was launched on Thu, 21 Jul 1988 UTC via an ARIANE 3 launch vehicle from the French Guiana (FRGUI). Payload-class satellites include a variety of spacecraft equipped with specific instruments for various scientific and technological missions. These include communications satellites like Starlink; space stations such as the ISS; scientific satellites like the Hubble; Earth observation satellites from companies like Planet Labs, Umbra, and HawkEye 360; GPS; miniature CubeSats for education and research; and military/defense satellites.

Not visible in the next 10 days
Identifier
19330, 1988-063A
Orbit
GEO
Country
Flag of ININ / IND
Related business
Manufacturer
Ford Ae
Mission
Non-operational Civil Com/Cal
Bus & Motor
INSAT, R-4D-11
Mass
1,190 kg wet, 550 kg dry
Launch date (UTC)
1988-07-21 (38 years ago)
Launch vehicle
ARIANE 3
Launch site
French Guiana (FRGUI)
Object type
Payload
Rocket body
Debris
Shape & HBR
Hex Poly + 1 Pan, 1.1 m
Radar Cross Section
2.690 m², Large (>1 m²)

Expand to show TLE details & history
Last TLE update: 3 days ago

TLE from 3 days ago
0 INSAT 1C
1 19330U 88063A   26170.97861002 -.00000084  00000-0  00000-0 0  9993
2 19330  11.3199 327.7709 0008622 143.7876 221.7611  1.00228987120371
Epoch: 2026-06-19T23:29Z
TLE epoch observation values (Epoch: 2026-06-19T23:29:11.905Z)
Latitude
1.07283°
Longitude
72.63762°
Altitude
35,825.138 km
Speed
3.072 km/s
True Right ascension
22h 12m 32s
True Declination
1° 04' 18"
Sunlit
Object was in daylight at epoch
Visualization orbit readout
Latitude
Unknown
Longitude
Unknown
Altitude
Unknown
Speed
Unknown
Apparent Right ascension
Unknown
Apparent Declination
Unknown
Sunlit
N/A
Visualization observer readout
Local Sidereal Time
23:09:07
Azimuth
Unknown
Elevation
Unknown
Doppler factor
Unknown
Orbital elements
Apogee altitude
35,835.972 km
Perigee altitude
35,763.241 km
Semi-major axis
42,177.744 km
Eccentricity
0.00086
Inclination
11.3199°
RAAN
327.7709°
Arg. of periapsis
143.7876°
True anomaly
221.69535°
Mean anomaly
221.7611°
Eccentric anomaly
221.72822°
Mean motion
0.25056 °/min
Orbital period
1,436.76 mins
BSTAR
0
Loading maneuver chart data...
Computing Atmospheric mass density...
Loading historical data...
Loading historical data...
Loading historical data...
Loading historical data...
Loading historical data...
Loading historical data...
Loading historical data...

Documentation

Showing up to 5 results
|